| time (UTC) | temp C | wind direction | speed KPH | gust KPH | rain 1hr cm | rain 24hr cm | rain mn cm | humidity % | barometer mb |
| 20260503214602 | 22 | 313 | 0.0 | 12.9 | 0.00 | 0.00 | 0.00 | 34 | 1012.8 |
| 20260503214056 | 22 | 300 | 3.2 | 12.9 | 0.00 | 0.00 | 0.00 | 34 | 1012.9 |
| 20260503213556 | 22 | 329 | 0.0 | 9.7 | 0.00 | 0.00 | 0.00 | 34 | 1013.0 |
| 20260503213100 | 22 | 227 | 1.6 | 12.9 | 0.00 | 0.00 | 0.00 | 35 | 1013.0 |
| 20260503212538 | 22 | 322 | 0.0 | 8.0 | 0.00 | 0.00 | 0.00 | 34 | 1013.1 |
| 20260503212037 | 21 | 178 | 0.0 | 19.3 | 0.00 | 0.00 | 0.00 | 34 | 1013.3 |
| 20260503211537 | 21 | 219 | 3.2 | 19.3 | 0.00 | 0.00 | 0.00 | 33 | 1013.3 |
| 20260503211037 | 21 | 141 | 0.0 | 14.5 | 0.00 | 0.00 | 0.00 | 35 | 1013.4 |
| 20260503211019 | 21 | 61 | 3.2 | 12.9 | 0.00 | 0.00 | 0.00 | 34 | 1013.4 |
| 20260503210032 | 21 | 146 | 6.4 | 12.9 | 0.00 | 0.00 | 0.00 | 35 | 1013.4 |
| 20260503205754 | 21 | 189 | 3.2 | 16.1 | 0.00 | 0.00 | 0.00 | 34 | 1013.5 |
| 20260503205304 | 21 | 180 | 4.8 | 16.1 | 0.00 | 0.00 | 0.00 | 34 | 1013.5 |
| 20260503204533 | 21 | 149 | 3.2 | 9.7 | 0.00 | 0.00 | 0.00 | 34 | 1013.6 |
| 20260503204031 | 21 | 26 | 3.2 | 12.9 | 0.00 | 0.00 | 0.00 | 35 | 1013.7 |
| 20260503203753 | 21 | 237 | 4.8 | 12.9 | 0.00 | 0.00 | 0.00 | 34 | 1013.7 |
| 20260503203025 | 21 | 318 | 0.0 | 8.0 | 0.00 | 0.00 | 0.00 | 37 | 1013.7 |
| 20260503202523 | 21 | 40 | 0.0 | 19.3 | 0.00 | 0.00 | 0.00 | 33 | 1013.8 |
| 20260503202019 | 21 | 325 | 3.2 | 20.9 | 0.00 | 0.00 | 0.00 | 35 | 1013.8 |
| 20260503201519 | 21 | 21 | 4.8 | 20.9 | 0.00 | 0.00 | 0.00 | 34 | 1013.8 |
| 20260503201510 | 21 | 342 | 1.6 | 20.9 | 0.00 | 0.00 | 0.00 | 34 | 1013.9 |
| 20260503200519 | 21 | 192 | 3.2 | 20.9 | 0.00 | 0.00 | 0.00 | 33 | 1013.9 |
| 20260503200022 | 21 | 316 | 1.6 | 9.7 | 0.00 | 0.00 | 0.00 | 35 | 1014.0 |
| 20260503195518 | 21 | 336 | 0.0 | 16.1 | 0.00 | 0.00 | 0.00 | 33 | 1014.1 |
| 20260503195015 | 21 | 155 | 4.8 | 16.1 | 0.00 | 0.00 | 0.00 | 33 | 1014.3 |
| 20260503194510 | 21 | 172 | 1.6 | 9.7 | 0.00 | 0.00 | 0.00 | 35 | 1014.4 |
| 20260503194009 | 20 | 331 | 0.0 | 14.5 | 0.00 | 0.00 | 0.00 | 34 | 1014.6 |
| 20260503193737 | 20 | 349 | 3.2 | 14.5 | 0.00 | 0.00 | 0.00 | 34 | 1014.6 |
| 20260503193010 | 20 | 285 | 1.6 | 12.9 | 0.00 | 0.00 | 0.00 | 34 | 1014.6 |
| 20260503192510 | 20 | 333 | 1.6 | 14.5 | 0.00 | 0.00 | 0.00 | 34 | 1014.7 |
| 20260503192006 | 20 | 213 | 3.2 | 14.5 | 0.00 | 0.00 | 0.00 | 34 | 1014.8 |
| 20260503191502 | 20 | 0 | 1.6 | 9.7 | 0.00 | 0.00 | 0.00 | 37 | 1014.7 |
| 20260503191001 | 20 | 180 | 1.6 | 11.3 | 0.00 | 0.00 | 0.00 | 35 | 1014.9 |
| 20260503190501 | 20 | 300 | 3.2 | 11.3 | 0.00 | 0.00 | 0.00 | 35 | 1014.9 |
| 20260503190001 | 20 | 86 | 1.6 | 11.3 | 0.00 | 0.00 | 0.00 | 36 | 1014.9 |
| 20260503185500 | 20 | 286 | 1.6 | 9.7 | 0.00 | 0.00 | 0.00 | 35 | 1015.0 |
| 20260503185004 | 20 | 198 | 0.0 | 14.5 | 0.00 | 0.00 | 0.00 | 36 | 1015.1 |
| 20260503184503 | 19 | 170 | 4.8 | 14.5 | 0.00 | 0.00 | 0.00 | 35 | 1015.3 |
| 20260503183957 | 19 | 152 | 1.6 | 16.1 | 0.00 | 0.00 | 0.00 | 36 | 1015.1 |
| 20260503183715 | 19 | 327 | 1.6 | 16.1 | 0.00 | 0.00 | 0.00 | 35 | 1015.1 |
| 20260503182952 | 19 | 5 | 6.4 | 16.1 | 0.00 | 0.00 | 0.00 | 33 | 1015.4 |
| 20260503182454 | 18 | 86 | 1.6 | 12.9 | 0.00 | 0.00 | 0.00 | 35 | 1015.4 |
| 20260503181952 | 18 | 101 | 1.6 | 8.0 | 0.00 | 0.00 | 0.00 | 37 | 1015.5 |
| 20260503181452 | 18 | 200 | 1.6 | 12.9 | 0.00 | 0.00 | 0.00 | 37 | 1015.6 |
| 20260503180947 | 18 | 144 | 0.0 | 12.9 | 0.00 | 0.00 | 0.00 | 38 | 1015.6 |
| 20260503180447 | 17 | 165 | 1.6 | 4.8 | 0.00 | 0.00 | 0.00 | 39 | 1015.7 |
| 20260503175948 | 17 | 321 | 0.0 | 8.0 | 0.00 | 0.00 | 0.00 | 43 | 1015.7 |
| 20260503175448 | 17 | 317 | 1.6 | 8.0 | 0.00 | 0.00 | 0.00 | 47 | 1015.8 |
| 20260503174949 | 16 | 130 | 0.0 | 6.4 | 0.00 | 0.00 | 0.00 | 43 | 1015.9 |
| 20260503174711 | 16 | 119 | 1.6 | 6.4 | 0.00 | 0.00 | 0.00 | 49 | 1015.8 |
| 20260503173946 | 16 | 97 | 0.0 | 6.4 | 0.00 | 0.00 | 0.00 | 51 | 1015.9 |
| 20260503173447 | 16 | 98 | 1.6 | 6.4 | 0.00 | 0.00 | 0.00 | 52 | 1015.8 |
| 20260503172944 | 16 | 94 | 1.6 | 6.4 | 0.00 | 0.00 | 0.00 | 52 | 1015.9 |
| 20260503172444 | 16 | 67 | 0.0 | 4.8 | 0.00 | 0.00 | 0.00 | 52 | 1016.0 |
| 20260503171944 | 15 | 65 | 1.6 | 6.4 | 0.00 | 0.00 | 0.00 | 53 | 1016.2 |
| 20260503171444 | 15 | 102 | 1.6 | 6.4 | 0.00 | 0.00 | 0.00 | 53 | 1016.2 |
| 20260503171206 | 15 | 125 | 0.0 | 6.4 | 0.00 | 0.00 | 0.00 | 56 | 1016.2 |
| 20260503170709 | 15 | 76 | 0.0 | 11.3 | 0.00 | 0.00 | 0.00 | 56 | 1016.2 |
| 20260503160145 | 12 | 83 | 1.6 | 4.8 | 0.00 | 0.00 | 0.00 | 62 | 1016.7 |
| 20260503150904 | 10 | 121 | 0.0 | 3.2 | 0.00 | 0.00 | 0.00 | 69 | 1017.6 |
| 20260503150628 | 10 | 121 | 0.0 | 1.6 | 0.00 | 0.00 | 0.00 | 69 | 1017.7 |
| 20260503150126 | 9 | 121 | 0.0 | 4.8 | 0.00 | 0.00 | 0.00 | 69 | 1017.8 |
| 20260503131322 | 3 | 298 | 0.0 | 0.0 | 0.00 | 0.00 | 0.00 | 94 | 1017.8 |
| 20260503130822 | 3 | 298 | 0.0 | 0.0 | 0.00 | 0.00 | 0.00 | 94 | 1017.7 |
| 20260503130325 | 2 | 298 | 0.0 | 3.2 | 0.00 | 0.00 | 0.00 | 94 | 1017.6 |
| 20260503110703 | 3 | 298 | 0.0 | 0.0 | 0.00 | 0.00 | 0.00 | 91 | 1017.5 |
| 20260503110201 | 3 | 298 | 0.0 | 0.0 | 0.00 | 0.00 | 0.00 | 91 | 1017.5 |
| 20260503100112 | 4 | 298 | 0.0 | 0.0 | 0.00 | 0.00 | 0.00 | 90 | 1017.4 |
| 20260503081530 | 6 | 298 | 0.0 | 0.0 | 0.00 | 0.00 | 0.00 | 87 | 1017.4 |
| 20260503081249 | 6 | 298 | 0.0 | 0.0 | 0.00 | 0.00 | 0.00 | 86 | 1017.4 |
| 20260503080531 | 6 | 298 | 0.0 | 0.0 | 0.00 | 0.00 | 0.00 | 86 | 1017.3 |
| 20260503072726 | 6 | 298 | 0.0 | 0.0 | 0.00 | 0.00 | 0.00 | 84 | 1017.3 |
| 20260503071958 | 6 | 298 | 0.0 | 0.0 | 0.00 | 0.00 | 0.00 | 83 | 1017.3 |
| 20260503071448 | 6 | 298 | 0.0 | 0.0 | 0.00 | 0.00 | 0.00 | 83 | 1017.3 |
| 20260503070948 | 7 | 298 | 0.0 | 0.0 | 0.00 | 0.00 | 0.00 | 83 | 1017.3 |
| 20260503070442 | 7 | 298 | 0.0 | 0.0 | 0.00 | 0.00 | 0.00 | 83 | 1017.4 |
| 20260503060343 | 8 | 298 | 0.0 | 1.6 | 0.00 | 0.00 | 0.00 | 79 | 1016.8 |
| 20260503054824 | 8 | 298 | 0.0 | 1.6 | 0.00 | 0.00 | 0.00 | 79 | 1016.7 |
| 20260503054820 | 8 | 298 | 0.0 | 1.6 | 0.00 | 0.00 | 0.00 | 79 | 1016.7 |
| 20260503054037 | 8 | 298 | 0.0 | 0.0 | 0.00 | 0.00 | 0.00 | 78 | 1016.8 |
| 20260503053304 | 8 | 298 | 0.0 | 0.0 | 0.00 | 0.00 | 0.00 | 77 | 1016.8 |
| 20260503052807 | 8 | 298 | 0.0 | 0.0 | 0.00 | 0.00 | 0.00 | 77 | 1016.8 |
| 20260503052305 | 9 | 298 | 0.0 | 0.0 | 0.00 | 0.00 | 0.00 | 77 | 1016.7 |
| 20260503051805 | 9 | 298 | 0.0 | 0.0 | 0.00 | 0.00 | 0.00 | 77 | 1016.7 |
| 20260503051525 | 9 | 298 | 0.0 | 0.0 | 0.00 | 0.00 | 0.00 | 78 | 1016.7 |
| 20260503050800 | 9 | 298 | 0.0 | 0.0 | 0.00 | 0.00 | 0.00 | 78 | 1016.7 |
| 20260503050255 | 9 | 298 | 0.0 | 0.0 | 0.00 | 0.00 | 0.00 | 77 | 1016.8 |
| 20260503045755 | 9 | 298 | 0.0 | 0.0 | 0.00 | 0.00 | 0.00 | 76 | 1016.8 |
| 20260503045300 | 9 | 298 | 0.0 | 0.0 | 0.00 | 0.00 | 0.00 | 76 | 1016.8 |
| 20260503044756 | 9 | 298 | 0.0 | 0.0 | 0.00 | 0.00 | 0.00 | 76 | 1016.8 |
| 20260503044251 | 10 | 298 | 0.0 | 0.0 | 0.00 | 0.00 | 0.00 | 76 | 1016.8 |
| 20260503043745 | 10 | 298 | 0.0 | 0.0 | 0.00 | 0.00 | 0.00 | 77 | 1016.8 |
| 20260503043502 | 10 | 298 | 0.0 | 3.2 | 0.00 | 0.00 | 0.00 | 77 | 1016.8 |
| 20260503042729 | 10 | 298 | 0.0 | 3.2 | 0.00 | 0.00 | 0.00 | 76 | 1016.8 |
| 20260503042225 | 10 | 298 | 0.0 | 0.0 | 0.00 | 0.00 | 0.00 | 76 | 1016.8 |
| 20260503041945 | 10 | 298 | 0.0 | 0.0 | 0.00 | 0.00 | 0.00 | 76 | 1016.7 |
| 20260503041221 | 10 | 298 | 0.0 | 0.0 | 0.00 | 0.00 | 0.00 | 74 | 1016.7 |
| 20260503040722 | 10 | 298 | 0.0 | 0.0 | 0.00 | 0.00 | 0.00 | 73 | 1016.7 |
| 20260503040217 | 10 | 298 | 0.0 | 0.0 | 0.00 | 0.00 | 0.00 | 74 | 1016.6 |
| 20260503035701 | 10 | 298 | 0.0 | 0.0 | 0.00 | 0.00 | 0.00 | 72 | 1016.6 |
| 20260503035157 | 10 | 298 | 0.0 | 0.0 | 0.00 | 0.00 | 0.00 | 72 | 1016.6 |
| 20260503034651 | 11 | 298 | 0.0 | 0.0 | 0.00 | 0.00 | 0.00 | 72 | 1016.5 |
| 20260503034132 | 11 | 298 | 0.0 | 0.0 | 0.00 | 0.00 | 0.00 | 70 | 1016.5 |
| 20260503033632 | 11 | 298 | 0.0 | 0.0 | 0.00 | 0.00 | 0.00 | 71 | 1016.5 |
| 20260503033609 | 11 | 298 | 0.0 | 0.0 | 0.00 | 0.00 | 0.00 | 69 | 1016.5 |
| 20260503032632 | 11 | 298 | 0.0 | 0.0 | 0.00 | 0.00 | 0.00 | 70 | 1016.5 |
| 20260503032132 | 11 | 298 | 0.0 | 1.6 | 0.00 | 0.00 | 0.00 | 70 | 1016.4 |
| 20260503031628 | 12 | 298 | 0.0 | 1.6 | 0.00 | 0.00 | 0.00 | 69 | 1016.4 |
| 20260503031117 | 12 | 287 | 0.0 | 0.0 | 0.00 | 0.00 | 0.00 | 69 | 1016.4 |
| 20260503030607 | 12 | 287 | 0.0 | 1.6 | 0.00 | 0.00 | 0.00 | 67 | 1016.3 |
| 20260503030108 | 13 | 287 | 0.0 | 1.6 | 0.00 | 0.00 | 0.00 | 67 | 1016.3 |
| 20260503025608 | 13 | 288 | 0.0 | 0.0 | 0.00 | 0.00 | 0.00 | 66 | 1016.3 |
| 20260503025111 | 13 | 288 | 0.0 | 0.0 | 0.00 | 0.00 | 0.00 | 65 | 1016.2 |
| 20260503024608 | 14 | 288 | 0.0 | 3.2 | 0.00 | 0.00 | 0.00 | 62 | 1016.2 |
| 20260503024104 | 14 | 288 | 0.0 | 3.2 | 0.00 | 0.00 | 0.00 | 64 | 1016.2 |
| 20260503023558 | 15 | 288 | 0.0 | 0.0 | 0.00 | 0.00 | 0.00 | 63 | 1016.0 |
| 20260503023054 | 15 | 288 | 0.0 | 0.0 | 0.00 | 0.00 | 0.00 | 61 | 1016.0 |
| 20260503022554 | 15 | 288 | 0.0 | 1.6 | 0.00 | 0.00 | 0.00 | 61 | 1016.0 |
| 20260503022328 | 16 | 288 | 0.0 | 1.6 | 0.00 | 0.00 | 0.00 | 59 | 1015.9 |
| 20260503021814 | 16 | 288 | 0.0 | 1.6 | 0.00 | 0.00 | 0.00 | 57 | 1015.9 |
| 20260503021315 | 16 | 288 | 0.0 | 1.6 | 0.00 | 0.00 | 0.00 | 58 | 1016.0 |
| 20260503020549 | 17 | 288 | 0.0 | 0.0 | 0.00 | 0.00 | 0.00 | 57 | 1015.9 |
| 20260503020045 | 17 | 288 | 0.0 | 0.0 | 0.00 | 0.00 | 0.00 | 56 | 1015.9 |
| 20260503015545 | 17 | 288 | 0.0 | 0.0 | 0.00 | 0.00 | 0.00 | 56 | 1015.9 |
| 20260503015045 | 18 | 288 | 0.0 | 3.2 | 0.00 | 0.00 | 0.00 | 56 | 1015.9 |
| 20260503014540 | 18 | 288 | 0.0 | 3.2 | 0.00 | 0.00 | 0.00 | 53 | 1016.0 |
| 20260503014041 | 18 | 288 | 0.0 | 1.6 | 0.00 | 0.00 | 0.00 | 53 | 1015.9 |
| 20260503013535 | 18 | 288 | 0.0 | 0.0 | 0.00 | 0.00 | 0.00 | 50 | 1016.0 |
| 20260503013033 | 18 | 288 | 0.0 | 6.4 | 0.00 | 0.00 | 0.00 | 49 | 1016.0 |
| 20260503012525 | 18 | 288 | 0.0 | 6.4 | 0.00 | 0.00 | 0.00 | 51 | 1016.0 |
| 20260503012240 | 18 | 100 | 0.0 | 3.2 | 0.00 | 0.00 | 0.00 | 49 | 1016.0 |
| 20260503011521 | 18 | 145 | 0.0 | 3.2 | 0.00 | 0.00 | 0.00 | 47 | 1015.9 |
| 20260503011021 | 18 | 145 | 0.0 | 3.2 | 0.00 | 0.00 | 0.00 | 45 | 1015.9 |
| 20260503010523 | 18 | 179 | 0.0 | 1.6 | 0.00 | 0.00 | 0.00 | 44 | 1016.0 |
| 20260503010022 | 18 | 297 | 0.0 | 6.4 | 0.00 | 0.00 | 0.00 | 44 | 1016.0 |
| 20260503005512 | 18 | 297 | 0.0 | 6.4 | 0.00 | 0.00 | 0.00 | 41 | 1016.2 |
| 20260503005001 | 19 | 313 | 0.0 | 6.4 | 0.00 | 0.00 | 0.00 | 41 | 1016.2 |
| 20260503004457 | 19 | 158 | 1.6 | 8.0 | 0.00 | 0.00 | 0.00 | 40 | 1016.2 |
| 20260503003957 | 19 | 0 | 1.6 | 8.0 | 0.00 | 0.00 | 0.00 | 38 | 1016.3 |
| 20260503003457 | 20 | 180 | 0.0 | 8.0 | 0.00 | 0.00 | 0.00 | 38 | 1016.3 |
| 20260503002957 | 20 | 180 | 1.6 | 8.0 | 0.00 | 0.00 | 0.00 | 38 | 1016.3 |
| 20260503002718 | 20 | 190 | 0.0 | 4.8 | 0.00 | 0.00 | 0.00 | 37 | 1016.3 |
| 20260503002210 | 20 | 190 | 0.0 | 6.4 | 0.00 | 0.00 | 0.00 | 37 | 1016.3 |
| 20260503001447 | 20 | 190 | 1.6 | 6.4 | 0.00 | 0.00 | 0.00 | 36 | 1016.4 |
| 20260503000943 | 20 | 9 | 0.0 | 6.4 | 0.00 | 0.00 | 0.00 | 37 | 1016.3 |
| 20260503000443 | 20 | 15 | 0.0 | 3.2 | 0.00 | 0.00 | 0.00 | 36 | 1016.2 |
| 20260502235943 | 20 | 15 | 0.0 | 9.7 | 0.00 | 0.00 | 0.00 | 38 | 1016.3 |
| 20260502235446 | 20 | 325 | 1.6 | 9.7 | 0.00 | 0.00 | 0.00 | 38 | 1016.3 |
| 20260502234944 | 20 | 326 | 1.6 | 8.0 | 0.00 | 0.00 | 0.00 | 37 | 1016.4 |
| 20260502234439 | 20 | 316 | 0.0 | 6.4 | 0.00 | 0.00 | 0.00 | 37 | 1016.3 |
| 20260502233938 | 20 | 207 | 0.0 | 6.4 | 0.00 | 0.00 | 0.00 | 36 | 1016.2 |
| 20260502233433 | 20 | 194 | 0.0 | 6.4 | 0.00 | 0.00 | 0.00 | 37 | 1016.2 |
| 20260502232929 | 20 | 215 | 0.0 | 4.8 | 0.00 | 0.00 | 0.00 | 37 | 1016.3 |
| 20260502232429 | 20 | 195 | 0.0 | 8.0 | 0.00 | 0.00 | 0.00 | 36 | 1016.4 |
| 20260502232416 | 20 | 187 | 0.0 | 8.0 | 0.00 | 0.00 | 0.00 | 36 | 1016.5 |
| 20260502231425 | 20 | 182 | 1.6 | 11.3 | 0.00 | 0.00 | 0.00 | 35 | 1016.5 |
| 20260502230925 | 21 | 217 | 4.8 | 11.3 | 0.00 | 0.00 | 0.00 | 34 | 1016.6 |
| 20260502230425 | 21 | 173 | 0.0 | 8.0 | 0.00 | 0.00 | 0.00 | 34 | 1016.6 |
| 20260502230409 | 21 | 330 | 0.0 | 8.0 | 0.00 | 0.00 | 0.00 | 34 | 1016.7 |
| 20260502225420 | 22 | 218 | 1.6 | 8.0 | 0.00 | 0.00 | 0.00 | 33 | 1016.7 |
| 20260502224915 | 22 | 311 | 1.6 | 12.9 | 0.00 | 0.00 | 0.00 | 34 | 1016.7 |
| 20260502224416 | 22 | 309 | 3.2 | 12.9 | 0.00 | 0.00 | 0.00 | 32 | 1016.7 |
| 20260502223916 | 22 | 294 | 3.2 | 8.0 | 0.00 | 0.00 | 0.00 | 31 | 1016.7 |
| 20260502223419 | 22 | 325 | 0.0 | 9.7 | 0.00 | 0.00 | 0.00 | 32 | 1016.8 |
| 20260502222918 | 22 | 233 | 3.2 | 9.7 | 0.00 | 0.00 | 0.00 | 31 | 1016.8 |
| 20260502222412 | 22 | 87 | 0.0 | 4.8 | 0.00 | 0.00 | 0.00 | 31 | 1016.8 |
| 20260502221912 | 22 | 55 | 0.0 | 9.7 | 0.00 | 0.00 | 0.00 | 32 | 1017.0 |
| 20260502221412 | 22 | 232 | 0.0 | 9.7 | 0.00 | 0.00 | 0.00 | 31 | 1016.9 |
| 20260502220902 | 22 | 226 | 1.6 | 6.4 | 0.00 | 0.00 | 0.00 | 33 | 1016.9 |
| 20260502220402 | 22 | 174 | 1.6 | 6.4 | 0.00 | 0.00 | 0.00 | 31 | 1016.9 |
| 20260502215902 | 22 | 190 | 0.0 | 8.0 | 0.00 | 0.00 | 0.00 | 31 | 1017.0 |
| 20260502215405 | 22 | 86 | 1.6 | 12.9 | 0.00 | 0.00 | 0.00 | 32 | 1017.2 |
| 20260502214854 | 22 | 0 | 0.0 | 12.9 | 0.00 | 0.00 | 0.00 | 34 | 1017.2 |